Location: Eferding
(48.3167°N, 14.0167°E)
Time: 14:34:52
(UTC+00:00)

Cosmos 1513 Rocket - Pass Details

Date: 12 November 2019
Orbit: 940 x 1008 km, 82.9° (Epoch: 04 December)

Event Time Altitude Azimuth Distance (km) Brightness Sun altitude
Rises 17:17:13 0° 351° (N) 3,751 7.6 -17.9°
Reaches altitude 10° 17:19:47 10° 353° (N) 2,797 6.9 -18.4°
Maximum altitude 17:26:15 77° 80° (E) 1,035 4.4 -19.4°
Drops below altitude 10° 17:32:36 10° 167° (SSE) 2,759 6.8 -20.5°
Sets 17:35:07 0° 168° (SSE) 3,697 7.5 -20.9°
